Nellis AFB, NV

4:55 PM PDT on May 27, 2018 (GMT -0700)
Nellis Air Force Base

Weather History for KLSV - September, 2013

Change the Weather History Date:

Tuesday, September 17, 2013

  Actual Average Record
Temperature  
Mean Temperature 87 °F -  
Max Temperature 100 °F 92 °F 105 °F (2000)
Min Temperature 74 °F 66 °F 59 °F (2005)
Cooling Degree Days 22    
Growing Degree Days 37 (Base 50)    
Moisture  
Dew Point 38 °F    
Average Humidity 19    
Maximum Humidity 38    
Minimum Humidity 7    
Precipitation  
Precipitation 0.00 in - - ()
Sea Level Pressure  
Sea Level Pressure 29.66 in    
Wind  
Wind Speed 10 mph (SSW)    
Max Wind Speed 29 mph    
Max Gust Speed 37 mph    
Visibility 10 miles    
Events      
Averages and records for this station are not official NWS values.
T = Trace of Precipitation, MM = Missing Value Source: NWS Daily Summary

Daily Weather History Graph

Daily Weather History Graph

Search for Another Location

Airport or City:

Astronomy

Sep. 17, 2013 Rise Set
Actual Time 6:24 AM PDT 6:43 PM PDT
Civil Twilight 5:58 AM PDT 7:09 PM PDT
Nautical Twilight 5:28 AM PDT 7:39 PM PDT
Astronomical Twilight 4:57 AM PDT 8:10 PM PDT
Moon 5:32 PM PDT (9/17) 4:26 AM PDT (9/17)
Length of Visible Light 13h 11m
Length of Day
12h 19m
Waxing Gibbous, 96% of the Moon is Illuminated
Sep 17
Waxing Gibbous
Sep 19
Full
Sep 26
Last Quarter
Oct 4
New
Oct 11
First Quarter

Hourly Weather History & Observations

Time (PDT) Temp. Dew Point Humidity Pressure Visibility Wind Dir Wind Speed Gust Speed Precip Events Conditions
12:57 AM 84.2 °F 48.2 °F 29% 29.76 in 10.0 mi WNW 4.6 mph - N/A   Clear
1:57 AM 80.6 °F 48.2 °F 32% 29.75 in 10.0 mi NE 3.5 mph - N/A   Clear
2:57 AM 77.0 °F 48.2 °F 36% 29.74 in 10.0 mi NE 5.8 mph - N/A   Clear
3:57 AM 80.6 °F 46.4 °F 30% 29.74 in 10.0 mi Variable 3.5 mph - N/A   Clear
4:57 AM 75.2 °F 48.2 °F 38% 29.74 in 10.0 mi North 5.8 mph - N/A   Clear
5:56 AM 80.6 °F 44.6 °F 28% 29.75 in 10.0 mi Calm Calm - N/A   Clear
6:58 AM 74.3 °F 46.4 °F 37% 29.77 in 10.0 mi NNW 3.5 mph - N/A   Clear
7:58 AM 79.9 °F 46.2 °F 30% 29.76 in 10.0 mi SW 8.1 mph - N/A   Clear
8:58 AM 85.3 °F 45.1 °F 25% 29.75 in 10.0 mi SSW 8.1 mph - N/A   Clear
9:58 AM 89.4 °F 43.2 °F 20% 29.76 in 10.0 mi South 9.2 mph - N/A   Clear
10:58 AM 92.8 °F 43.7 °F 18% 29.74 in 10.0 mi South 8.1 mph - N/A   Clear
11:58 AM 95.5 °F 41.7 °F 16% 29.71 in 10.0 mi SSE 11.5 mph - N/A   Clear
12:58 PM 99.0 °F 39.0 °F 13% 29.67 in 10.0 mi SSW 25.3 mph 35.7 mph N/A   Clear
1:14 PM 98.6 °F 39.2 °F 13% 29.66 in 10.0 mi South 21.9 mph 34.5 mph N/A   Clear
1:58 PM 100.2 °F 36.5 °F 11% 29.63 in 10.0 mi SSW 28.8 mph 35.7 mph N/A   Clear
2:58 PM 100.4 °F 32.5 °F 9% 29.60 in 10.0 mi SSW 27.6 mph 36.8 mph N/A   Clear
3:58 PM 99.9 °F 27.3 °F 8% 29.59 in 10.0 mi SSW 26.5 mph - N/A   Clear
4:58 PM 99.0 °F 25.9 °F 7% 29.57 in 10.0 mi SSW 25.3 mph 32.2 mph N/A   Clear
5:58 PM 96.6 °F 23.5 °F 7% 29.59 in 10.0 mi WSW 18.4 mph - N/A   Clear
6:58 PM 94.5 °F 25.2 °F 8% 29.51 in 10.0 mi WSW 10.4 mph - N/A   Clear
7:58 PM 88.3 °F 30.6 °F 13% 29.52 in 10.0 mi South 6.9 mph - N/A   Clear
8:58 PM 87.6 °F 33.4 °F 14% 29.53 in 10.0 mi South 8.1 mph - N/A   Clear
9:58 PM 87.4 °F 29.5 °F 12% 29.55 in 10.0 mi SSW 16.1 mph - N/A   Clear
10:58 PM 85.8 °F 24.8 °F 11% 29.57 in 10.0 mi South 15.0 mph - N/A   Clear
11:58 PM 86.4 °F 25.5 °F 11% 29.57 in 10.0 mi South 11.5 mph 23.0 mph N/A   Clear